N2193G KPHL-KPHL

Flight info

Callsign N2193G
Flight time 0h 6m
Altitude 2500
Route KPHL
Aircraft EC45/L-SDE3L/L

Departure

Time 2026-05-06 22:29
Airport Philadelphia International Airport (KPHL)

Arrival

Time 2026-05-06 22:35
Airport Philadelphia International Airport (KPHL)
Time Latitude Longitude Altitude Speed Heading
2026-05-06 22:23 39.94897 -75.15869 226 ft 0 kts 279°
2026-05-06 22:27 39.94898 -75.15867 227 ft 3 kts 279°
2026-05-06 22:27 39.94898 -75.15864 226 ft 0 kts 262°
2026-05-06 22:27 39.94896 -75.15862 226 ft 0 kts 284°
2026-05-06 22:28 39.94898 -75.15864 248 ft 1 kts 296°
2026-05-06 22:28 39.94890 -75.15898 318 ft 19 kts 223°
2026-05-06 22:28 39.94672 -75.16047 543 ft 42 kts 207°
2026-05-06 22:29 39.94314 -75.16185 664 ft 63 kts 188°
2026-05-06 22:29 39.93838 -75.16207 709 ft 69 kts 195°
2026-05-06 22:29 39.93379 -75.16294 817 ft 71 kts 193°
2026-05-06 22:29 39.92823 -75.16380 734 ft 87 kts 191°
2026-05-06 22:30 39.92169 -75.16501 605 ft 99 kts 188°
2026-05-06 22:30 39.91496 -75.16588 631 ft 89 kts 194°
2026-05-06 22:30 39.90854 -75.16701 585 ft 96 kts 192°
2026-05-06 22:30 39.90200 -75.16863 589 ft 94 kts 200°
2026-05-06 22:31 39.89582 -75.17115 593 ft 93 kts 205°
2026-05-06 22:31 39.88991 -75.17395 643 ft 87 kts 208°
2026-05-06 22:31 39.88441 -75.17683 719 ft 87 kts 198°
2026-05-06 22:31 39.87793 -75.17729 756 ft 97 kts 189°
2026-05-06 22:32 39.87122 -75.17798 793 ft 102 kts 191°
2026-05-06 22:32 39.86377 -75.17916 756 ft 111 kts 188°
2026-05-06 22:32 39.85619 -75.17979 784 ft 109 kts 188°
2026-05-06 22:32 39.84883 -75.18086 814 ft 101 kts 196°
2026-05-06 22:33 39.84161 -75.18246 819 ft 109 kts 194°
2026-05-06 22:33 39.83408 -75.18393 849 ft 111 kts 193°
2026-05-06 22:33 39.82635 -75.18534 789 ft 111 kts 195°
2026-05-06 22:33 39.82006 -75.18954 835 ft 92 kts 256°
2026-05-06 22:34 39.82291 -75.19549 917 ft 94 kts 341°
2026-05-06 22:34 39.82989 -75.19653 844 ft 99 kts 349°
2026-05-06 22:34 39.83652 -75.19865 750 ft 98 kts 331°
2026-05-06 22:34 39.83990 -75.20432 673 ft 71 kts 256°
2026-05-06 22:35 39.83584 -75.20542 661 ft 81 kts 156°
2026-05-06 22:35 39.83357 -75.19725 530 ft 100 kts 115°
2026-05-06 22:35 39.83157 -75.19022 401 ft 60 kts 167°
2026-05-06 22:35 39.82981 -75.19031 266 ft 10 kts 268°
2026-05-06 22:36 39.82915 -75.19151 282 ft 14 kts 263°
2026-05-06 22:36 39.82843 -75.19180 301 ft 18 kts 264°
2026-05-06 22:36 39.82874 -75.19246 237 ft 14 kts 302°
2026-05-06 22:36 39.82917 -75.19259 212 ft 5 kts 307°
2026-05-06 22:37 39.83003 -75.19281 217 ft 17 kts 98°
2026-05-06 22:37 39.83030 -75.19239 215 ft 9 kts 101°
2026-05-06 22:37 39.82968 -75.19165 162 ft 13 kts 100°
2026-05-06 22:37 39.82951 -75.19124 69 ft 3 kts 100°
2026-05-06 22:38 39.82953 -75.19109 55 ft 1 kts 99°
2026-05-06 22:38 39.82953 -75.19106 54 ft 0 kts 97°
2026-05-06 22:38 39.82956 -75.19101 51 ft 0 kts 148°
2026-05-06 22:38 39.82955 -75.19112 56 ft 8 kts 267°
2026-05-06 22:39 39.82953 -75.19187 55 ft 3 kts 265°
2026-05-06 22:39 39.82937 -75.19232 51 ft 6 kts 262°
2026-05-06 22:39 39.82935 -75.19236 49 ft 0 kts 266°
2026-05-06 22:48 39.82940 -75.19241 78 ft 2 kts 255°
2026-05-06 22:49 39.82946 -75.19224 169 ft 6 kts 258°
2026-05-06 22:49 39.83069 -75.19365 249 ft 46 kts 289°
2026-05-06 22:49 39.83515 -75.19683 296 ft 94 kts 324°
2026-05-06 22:49 39.84152 -75.20039 405 ft 109 kts 321°
2026-05-06 22:50 39.84834 -75.20582 439 ft 117 kts 317°
2026-05-06 22:50 39.85499 -75.21232 502 ft 120 kts 312°
2026-05-06 22:50 39.86159 -75.21830 556 ft 114 kts 321°
2026-05-06 22:50 39.86819 -75.22380 685 ft 111 kts 321°
2026-05-06 22:51 39.87506 -75.22844 837 ft 113 kts 324°
2026-05-06 22:51 39.88240 -75.23307 923 ft 121 kts 323°
2026-05-06 22:51 39.88907 -75.23857 956 ft 115 kts 313°
2026-05-06 22:51 39.89561 -75.24500 869 ft 119 kts 312°
2026-05-06 22:52 39.90217 -75.25147 829 ft 120 kts 320°
2026-05-06 22:52 39.91047 -75.25416 697 ft 139 kts 358°
2026-05-06 22:52 39.91946 -75.25479 839 ft 119 kts 340°
2026-05-06 22:52 39.92668 -75.25865 934 ft 107 kts 319°
2026-05-06 22:53 39.93073 -75.26547 1007 ft 77 kts 260°
2026-05-06 22:53 39.93137 -75.27279 1271 ft 101 kts 279°
2026-05-06 22:53 39.93415 -75.28238 1433 ft 117 kts 282°
2026-05-06 22:53 39.93718 -75.29080 1508 ft 90 kts 288°
2026-05-06 22:54 39.94063 -75.29858 1500 ft 112 kts 292°
2026-05-06 22:54 39.94504 -75.30705 1522 ft 113 kts 296°
2026-05-06 22:54 39.94990 -75.31524 1525 ft 115 kts 299°
2026-05-06 22:54 39.95512 -75.32317 1525 ft 116 kts 302°
2026-05-06 22:55 39.96062 -75.33089 1526 ft 116 kts 304°
2026-05-06 22:55 39.96627 -75.33833 1528 ft 117 kts 305°
2026-05-06 22:55 39.97217 -75.34573 1532 ft 118 kts 307°
2026-05-06 22:55 39.97821 -75.35302 1537 ft 118 kts 308°
2026-05-06 22:56 39.98431 -75.36022 1533 ft 118 kts 308°
2026-05-06 22:56 39.99044 -75.36734 1529 ft 118 kts 308°
2026-05-06 22:56 39.99660 -75.37439 1544 ft 117 kts 309°
2026-05-06 22:56 40.00274 -75.38136 1543 ft 117 kts 309°
2026-05-06 22:57 40.00893 -75.38830 1542 ft 118 kts 309°
2026-05-06 22:57 40.01520 -75.39532 1545 ft 119 kts 309°
2026-05-06 22:57 40.02144 -75.40228 1544 ft 118 kts 310°
2026-05-06 22:57 40.02766 -75.40918 1544 ft 117 kts 310°
2026-05-06 22:58 40.03391 -75.41612 1545 ft 118 kts 310°
2026-05-06 22:58 40.04011 -75.42301 1545 ft 119 kts 310°
2026-05-06 22:58 40.04640 -75.42999 1550 ft 119 kts 312°
2026-05-06 22:58 40.05269 -75.43697 1548 ft 119 kts 313°
2026-05-06 22:59 40.05905 -75.44398 1545 ft 120 kts 313°
2026-05-06 22:59 40.06539 -75.45099 1547 ft 118 kts 313°
2026-05-06 22:59 40.07168 -75.45793 1546 ft 118 kts 312°
2026-05-06 22:59 40.07799 -75.46491 1545 ft 119 kts 311°
2026-05-06 23:00 40.08433 -75.47191 1529 ft 119 kts 311°
2026-05-06 23:00 40.09065 -75.47890 1500 ft 119 kts 311°
2026-05-06 23:00 40.09667 -75.48566 1387 ft 108 kts 312°
2026-05-06 23:00 40.10237 -75.49206 1249 ft 112 kts 314°
2026-05-06 23:01 40.10839 -75.49879 1129 ft 113 kts 312°
2026-05-06 23:01 40.11438 -75.50541 1031 ft 112 kts 315°
2026-05-06 23:01 40.11986 -75.51098 652 ft 78 kts 316°
2026-05-06 23:01 40.12242 -75.51363 405 ft 28 kts 298°
2026-05-06 23:02 40.12302 -75.51489 312 ft 3 kts 294°
2026-05-06 23:02 40.12308 -75.51511 306 ft 2 kts 279°
2026-05-06 23:02 40.12325 -75.51523 301 ft 4 kts 281°
2026-05-06 23:02 40.12327 -75.51564 272 ft 3 kts 294°
2026-05-06 23:03 40.12332 -75.51570 260 ft 1 kts 287°
2026-05-06 23:16 40.12333 -75.51574 271 ft 1 kts 298°
2026-05-06 23:16 40.12332 -75.51570 326 ft 3 kts 275°
2026-05-06 23:16 40.12254 -75.51587 385 ft 36 kts 181°
2026-05-06 23:17 40.11876 -75.51412 531 ft 75 kts 161°
2026-05-06 23:17 40.11318 -75.51150 631 ft 96 kts 160°
2026-05-06 23:17 40.10659 -75.50875 682 ft 103 kts 165°
2026-05-06 23:17 40.09941 -75.50612 823 ft 110 kts 169°
2026-05-06 23:18 40.09189 -75.50376 860 ft 110 kts 171°
2026-05-06 23:18 40.08434 -75.50163 988 ft 114 kts 173°
2026-05-06 23:18 40.07651 -75.49960 1031 ft 119 kts 172°
2026-05-06 23:18 40.06838 -75.49757 1120 ft 116 kts 173°
2026-05-06 23:19 40.06071 -75.49630 1367 ft 115 kts 179°
2026-05-06 23:19 40.05280 -75.49452 1476 ft 116 kts 175°
2026-05-06 23:19 40.04477 -75.49236 1519 ft 118 kts 175°
2026-05-06 23:19 40.03666 -75.49006 1531 ft 120 kts 175°
2026-05-06 23:20 40.02848 -75.48769 1542 ft 119 kts 174°
2026-05-06 23:20 40.02048 -75.48530 1544 ft 118 kts 174°
2026-05-06 23:20 40.01237 -75.48292 1545 ft 121 kts 174°
2026-05-06 23:20 40.00423 -75.48048 1551 ft 119 kts 174°
2026-05-06 23:21 39.99611 -75.47804 1548 ft 120 kts 175°
2026-05-06 23:21 39.98802 -75.47560 1536 ft 119 kts 175°
2026-05-06 23:21 39.98015 -75.47329 1538 ft 118 kts 175°
2026-05-06 23:21 39.97203 -75.47091 1551 ft 115 kts 174°
2026-05-06 23:22 39.96435 -75.46858 1545 ft 117 kts 176°
2026-05-06 23:22 39.95623 -75.46622 1549 ft 121 kts 174°
2026-05-06 23:22 39.94808 -75.46377 1549 ft 120 kts 175°
2026-05-06 23:22 39.94021 -75.46136 1551 ft 114 kts 175°
2026-05-06 23:23 39.93245 -75.45902 1548 ft 115 kts 176°
2026-05-06 23:23 39.92460 -75.45669 1545 ft 117 kts 176°
2026-05-06 23:23 39.91648 -75.45430 1548 ft 119 kts 175°
2026-05-06 23:23 39.90851 -75.45180 1436 ft 117 kts 174°
2026-05-06 23:24 39.90060 -75.44933 1381 ft 116 kts 174°
2026-05-06 23:24 39.89267 -75.44697 1364 ft 116 kts 174°
2026-05-06 23:24 39.88480 -75.44468 1404 ft 116 kts 175°
2026-05-06 23:24 39.87674 -75.44214 1417 ft 124 kts 172°
2026-05-06 23:25 39.86814 -75.43879 1208 ft 130 kts 169°
2026-05-06 23:25 39.85988 -75.43519 834 ft 119 kts 167°
2026-05-06 23:25 39.85300 -75.43186 785 ft 95 kts 169°
2026-05-06 23:25 39.84675 -75.42972 685 ft 88 kts 175°
2026-05-06 23:26 39.84098 -75.42862 580 ft 87 kts 180°
2026-05-06 23:26 39.83642 -75.43000 597 ft 54 kts 282°
2026-05-06 23:26 39.83701 -75.43398 651 ft 36 kts 20°
2026-05-06 23:26 39.83913 -75.43537 556 ft 32 kts 77°
2026-05-06 23:27 39.84095 -75.43475 141 ft 19 kts 120°
2026-05-06 23:27 39.84075 -75.43522 213 ft 6 kts 124°
2026-05-06 23:27 39.83958 -75.43441 281 ft 27 kts 101°
2026-05-06 23:27 39.83873 -75.43327 187 ft 9 kts 88°
2026-05-06 23:28 39.83869 -75.43254 159 ft 5 kts 88°
2026-05-06 23:28 39.83871 -75.43214 108 ft 5 kts 88°
2026-05-06 23:28 39.83870 -75.43206 106 ft 0 kts 82°
2026-05-06 23:35 39.83869 -75.43204 116 ft 1 kts 76°
2026-05-06 23:36 39.83864 -75.43195 237 ft 5 kts 104°
2026-05-06 23:36 39.83857 -75.43089 419 ft 28 kts 13°
2026-05-06 23:36 39.84126 -75.43055 583 ft 59 kts 317°
2026-05-06 23:36 39.84631 -75.43300 654 ft 94 kts 321°
2026-05-06 23:37 39.85291 -75.43693 670 ft 109 kts 323°
2026-05-06 23:37 39.86005 -75.44056 824 ft 110 kts 329°
2026-05-06 23:37 39.86776 -75.44277 912 ft 117 kts 349°
2026-05-06 23:37 39.87521 -75.43869 987 ft 127 kts 44°
2026-05-06 23:38 39.88255 -75.43155 1034 ft 138 kts 21°
2026-05-06 23:38 39.89177 -75.42969 1069 ft 133 kts 346°
2026-05-06 23:38 39.89982 -75.43406 1083 ft 122 kts 316°
2026-05-06 23:38 39.90592 -75.44171 1091 ft 122 kts 309°
2026-05-06 23:39 39.91211 -75.44925 1089 ft 122 kts 314°
2026-05-06 23:39 39.91889 -75.45594 1218 ft 122 kts 320°
2026-05-06 23:39 39.92618 -75.46198 1287 ft 127 kts 320°
2026-05-06 23:39 39.93391 -75.46753 1325 ft 126 kts 323°
2026-05-06 23:40 39.94170 -75.47258 1335 ft 123 kts 326°
2026-05-06 23:40 39.94957 -75.47720 1408 ft 125 kts 330°
2026-05-06 23:40 39.95752 -75.48149 1488 ft 124 kts 330°
2026-05-06 23:40 39.96559 -75.48556 1687 ft 125 kts 328°
2026-05-06 23:41 39.97381 -75.48962 1780 ft 126 kts 328°
2026-05-06 23:41 39.98200 -75.49363 1810 ft 126 kts 330°
2026-05-06 23:41 39.99034 -75.49757 1831 ft 128 kts 330°
2026-05-06 23:41 39.99861 -75.50139 1852 ft 124 kts 332°
2026-05-06 23:42 40.00666 -75.50509 1844 ft 123 kts 331°
2026-05-06 23:42 40.01474 -75.50877 1848 ft 123 kts 332°
2026-05-06 23:42 40.02278 -75.51242 1846 ft 125 kts 333°
2026-05-06 23:42 40.03100 -75.51611 1848 ft 125 kts 333°
2026-05-06 23:43 40.03924 -75.51977 1846 ft 124 kts 332°
2026-05-06 23:43 40.04742 -75.52341 1852 ft 124 kts 332°
2026-05-06 23:43 40.05555 -75.52704 1847 ft 124 kts 333°
2026-05-06 23:43 40.06368 -75.53067 1850 ft 123 kts 333°
2026-05-06 23:44 40.07179 -75.53429 1848 ft 124 kts 332°
2026-05-06 23:44 40.08005 -75.53796 1841 ft 125 kts 332°
2026-05-06 23:44 40.08833 -75.54165 1841 ft 126 kts 332°
2026-05-06 23:44 40.09651 -75.54532 1837 ft 122 kts 333°
2026-05-06 23:45 40.10461 -75.54886 1834 ft 125 kts 332°
2026-05-06 23:45 40.11289 -75.55252 1837 ft 125 kts 332°
2026-05-06 23:45 40.12115 -75.55617 1841 ft 125 kts 332°
2026-05-06 23:45 40.12925 -75.55979 1838 ft 122 kts 333°
2026-05-06 23:46 40.13730 -75.56338 1840 ft 123 kts 332°
2026-05-06 23:46 40.14526 -75.56694 1838 ft 123 kts 331°
2026-05-06 23:46 40.15341 -75.57058 1840 ft 124 kts 331°
2026-05-06 23:46 40.16154 -75.57420 1838 ft 123 kts 332°
2026-05-06 23:47 40.16967 -75.57781 1841 ft 122 kts 332°
2026-05-06 23:47 40.17769 -75.58142 1768 ft 124 kts 331°
2026-05-06 23:47 40.18585 -75.58496 1633 ft 123 kts 332°
2026-05-06 23:47 40.19388 -75.58809 1557 ft 119 kts 337°
2026-05-06 23:48 40.20194 -75.59016 1534 ft 117 kts 342°
2026-05-06 23:48 40.20990 -75.59216 1511 ft 117 kts 341°
2026-05-06 23:48 40.21803 -75.59379 1464 ft 120 kts 345°
2026-05-06 23:48 40.22618 -75.59529 1287 ft 116 kts 343°
2026-05-06 23:49 40.23381 -75.59691 1061 ft 103 kts 348°
2026-05-06 23:49 40.23994 -75.59844 1018 ft 76 kts 294°
2026-05-06 23:49 40.24365 -75.60144 671 ft 53 kts 268°
2026-05-06 23:49 40.24431 -75.60509 450 ft 35 kts 229°
2026-05-06 23:50 40.24368 -75.60837 322 ft 31 kts 252°
2026-05-06 23:50 40.24347 -75.61096 184 ft 5 kts 288°
2026-05-06 23:50 40.24350 -75.61117 171 ft 0 kts 275°
2026-05-06 23:51 40.24352 -75.61119 168 ft 0 kts 275°
2026-05-06 23:56 40.24357 -75.61119 193 ft 1 kts 281°
2026-05-06 23:56 40.24368 -75.61165 306 ft 16 kts 278°
2026-05-06 23:56 40.24489 -75.61459 442 ft 61 kts 297°
2026-05-06 23:57 40.24852 -75.61897 523 ft 79 kts 302°
2026-05-06 23:57 40.25262 -75.62529 563 ft 104 kts 308°
2026-05-06 23:57 40.25812 -75.63243 645 ft 116 kts 308°
2026-05-06 23:57 40.26387 -75.63990 778 ft 117 kts 311°
2026-05-06 23:58 40.26965 -75.64737 895 ft 116 kts 309°
2026-05-06 23:58 40.27549 -75.65456 998 ft 114 kts 316°
2026-05-06 23:58 40.28051 -75.66276 1004 ft 114 kts 298°
2026-05-06 23:58 40.28331 -75.67233 1117 ft 106 kts 289°
2026-05-06 23:59 40.28782 -75.67942 1459 ft 96 kts 310°
2026-05-06 23:59 40.29251 -75.68481 1834 ft 83 kts 311°
2026-05-06 23:59 40.29658 -75.68959 2200 ft 74 kts 307°
2026-05-06 23:59 40.30010 -75.69394 2395 ft 65 kts 303°
2026-05-07 00:00 40.30309 -75.69777 2474 ft 55 kts 303°
2026-05-07 00:00 40.30559 -75.70105 2505 ft 47 kts 298°
2026-05-07 00:00 40.30854 -75.70507 2505 ft 78 kts 301°
2026-05-07 00:00 40.31141 -75.70894 2511 ft 99 kts 303°
2026-05-07 00:01 40.31603 -75.71507 2619 ft 87 kts 304°
2026-05-07 00:01 40.32161 -75.72268 2570 ft 87 kts 303°
2026-05-07 00:01 40.32595 -75.72869 2538 ft 98 kts 304°
2026-05-07 00:01 40.33071 -75.73527 2544 ft 99 kts 304°
2026-05-07 00:02 40.33410 -75.73995 2540 ft 110 kts 305°
2026-05-07 00:02 40.33927 -75.74707 2545 ft 109 kts 305°
2026-05-07 00:02 40.34444 -75.75425 2538 ft 108 kts 305°
2026-05-07 00:02 40.34959 -75.76143 2545 ft 108 kts 305°
2026-05-07 00:03 40.35472 -75.76864 2540 ft 109 kts 306°
2026-05-07 00:03 40.35993 -75.77601 2546 ft 110 kts 305°
2026-05-07 00:03 40.36512 -75.78338 2542 ft 110 kts 305°
2026-05-07 00:03 40.37023 -75.79067 2542 ft 107 kts 307°
2026-05-07 00:04 40.37531 -75.79789 2539 ft 108 kts 307°
2026-05-07 00:04 40.38034 -75.80509 2539 ft 106 kts 307°
2026-05-07 00:04 40.38540 -75.81228 2539 ft 108 kts 307°
2026-05-07 00:04 40.39049 -75.81950 2538 ft 108 kts 307°
2026-05-07 00:05 40.39555 -75.82671 2538 ft 107 kts 307°
2026-05-07 00:05 40.40061 -75.83393 2536 ft 108 kts 307°
2026-05-07 00:05 40.40568 -75.84115 2536 ft 108 kts 307°
2026-05-07 00:05 40.41073 -75.84835 2533 ft 107 kts 307°
2026-05-07 00:06 40.41568 -75.85540 2537 ft 106 kts 306°
2026-05-07 00:06 40.42063 -75.86249 2530 ft 105 kts 307°
2026-05-07 00:06 40.42557 -75.86957 2535 ft 105 kts 307°
2026-05-07 00:06 40.43052 -75.87667 2530 ft 106 kts 306°
2026-05-07 00:07 40.43556 -75.88389 2535 ft 107 kts 306°
2026-05-07 00:07 40.44058 -75.89109 2533 ft 107 kts 305°
2026-05-07 00:07 40.44560 -75.89829 2531 ft 107 kts 306°
2026-05-07 00:07 40.45063 -75.90547 2531 ft 107 kts 305°
2026-05-07 00:08 40.45567 -75.91270 2531 ft 107 kts 306°
2026-05-07 00:08 40.46071 -75.91991 2531 ft 107 kts 306°
2026-05-07 00:08 40.46576 -75.92715 2529 ft 108 kts 306°
2026-05-07 00:08 40.47089 -75.93450 2532 ft 109 kts 306°
2026-05-07 00:09 40.47602 -75.94184 2523 ft 109 kts 306°
2026-05-07 00:09 40.48119 -75.94920 2525 ft 109 kts 307°
2026-05-07 00:09 40.48625 -75.95643 2522 ft 107 kts 307°
2026-05-07 00:09 40.49117 -75.96348 2527 ft 105 kts 308°
2026-05-07 00:10 40.49607 -75.97050 2533 ft 105 kts 308°
2026-05-07 00:10 40.50103 -75.97758 2533 ft 106 kts 308°
2026-05-07 00:10 40.50601 -75.98471 2529 ft 106 kts 308°
2026-05-07 00:10 40.51097 -75.99182 2530 ft 105 kts 308°
2026-05-07 00:11 40.51425 -75.99651 2529 ft 105 kts 308°
2026-05-07 00:11 40.52086 -76.00598 2532 ft 105 kts 308°
2026-05-07 00:11 40.52581 -76.01308 2535 ft 105 kts 307°
2026-05-07 00:11 40.53073 -76.02021 2533 ft 106 kts 307°
2026-05-07 00:12 40.53572 -76.02741 2526 ft 107 kts 306°
2026-05-07 00:12 40.54069 -76.03457 2524 ft 107 kts 307°
2026-05-07 00:12 40.54570 -76.04178 2524 ft 106 kts 307°
2026-05-07 00:12 40.55068 -76.04896 2527 ft 106 kts 307°
2026-05-07 00:13 40.55571 -76.05617 2525 ft 108 kts 306°
2026-05-07 00:13 40.56082 -76.06350 2539 ft 108 kts 306°
2026-05-07 00:13 40.56578 -76.07073 2533 ft 106 kts 307°
2026-05-07 00:13 40.57081 -76.07792 2487 ft 109 kts 308°
2026-05-07 00:14 40.57576 -76.08499 2547 ft 103 kts 308°
2026-05-07 00:14 40.58070 -76.09208 2542 ft 106 kts 308°
2026-05-07 00:14 40.58571 -76.09925 2540 ft 105 kts 308°
2026-05-07 00:14 40.59062 -76.10630 2559 ft 105 kts 307°
2026-05-07 00:15 40.59553 -76.11339 2552 ft 105 kts 307°
2026-05-07 00:15 40.60036 -76.12038 2556 ft 104 kts 307°
2026-05-07 00:15 40.60530 -76.12752 2553 ft 104 kts 307°
2026-05-07 00:15 40.61012 -76.13449 2561 ft 104 kts 308°
2026-05-07 00:16 40.61501 -76.14156 2562 ft 104 kts 308°
2026-05-07 00:16 40.61992 -76.14861 2559 ft 103 kts 309°
2026-05-07 00:16 40.62477 -76.15554 2564 ft 106 kts 309°
2026-05-07 00:16 40.62980 -76.16283 2558 ft 108 kts 310°
2026-05-07 00:17 40.63486 -76.17018 2569 ft 108 kts 309°
2026-05-07 00:17 40.63988 -76.17748 2569 ft 107 kts 309°
2026-05-07 00:17 40.64487 -76.18471 2570 ft 107 kts 309°
2026-05-07 00:17 40.64979 -76.19185 2563 ft 106 kts 309°
2026-05-07 00:18 40.65478 -76.19897 2566 ft 106 kts 309°
2026-05-07 00:18 40.65974 -76.20615 2578 ft 106 kts 308°
2026-05-07 00:18 40.66465 -76.21332 2568 ft 105 kts 309°
2026-05-07 00:18 40.66963 -76.22047 2574 ft 107 kts 308°
2026-05-07 00:19 40.67462 -76.22773 2575 ft 107 kts 308°
2026-05-07 00:19 40.67963 -76.23499 2554 ft 108 kts 308°
2026-05-07 00:19 40.68473 -76.24237 2548 ft 109 kts 309°
2026-05-07 00:19 40.68993 -76.24988 2538 ft 111 kts 309°
2026-05-07 00:20 40.69510 -76.25745 2449 ft 109 kts 310°
2026-05-07 00:20 40.70012 -76.26484 2317 ft 108 kts 310°
2026-05-07 00:20 40.70513 -76.27223 2155 ft 107 kts 311°
2026-05-07 00:20 40.71020 -76.27963 2090 ft 110 kts 310°
2026-05-07 00:21 40.71530 -76.28708 2055 ft 112 kts 311°
2026-05-07 00:21 40.72062 -76.29462 2151 ft 114 kts 313°
2026-05-07 00:21 40.72597 -76.30223 2210 ft 106 kts 309°
2026-05-07 00:21 40.73088 -76.30926 2294 ft 106 kts 310°
2026-05-07 00:22 40.73591 -76.31649 2356 ft 107 kts 310°
2026-05-07 00:22 40.74086 -76.32373 2371 ft 105 kts 310°
2026-05-07 00:22 40.74577 -76.33092 2381 ft 106 kts 311°
2026-05-07 00:22 40.75072 -76.33827 2377 ft 108 kts 309°
2026-05-07 00:23 40.75574 -76.34557 2375 ft 109 kts 311°
2026-05-07 00:23 40.76089 -76.35300 2381 ft 110 kts 311°
2026-05-07 00:23 40.76603 -76.36044 2380 ft 110 kts 311°
2026-05-07 00:23 40.77114 -76.36780 2381 ft 109 kts 313°
2026-05-07 00:24 40.77609 -76.37499 2380 ft 102 kts 313°
2026-05-07 00:24 40.78099 -76.38208 2378 ft 107 kts 312°
2026-05-07 00:24 40.78596 -76.38927 2359 ft 105 kts 310°
2026-05-07 00:24 40.79086 -76.39639 2354 ft 106 kts 308°
2026-05-07 00:25 40.79571 -76.40354 2343 ft 104 kts 308°
2026-05-07 00:25 40.80056 -76.41066 2345 ft 104 kts 309°
2026-05-07 00:25 40.80543 -76.41778 2321 ft 105 kts 308°
2026-05-07 00:25 40.81019 -76.42482 2273 ft 101 kts 310°
2026-05-07 00:26 40.81483 -76.43159 2261 ft 96 kts 310°
2026-05-07 00:26 40.81924 -76.43805 2246 ft 95 kts 310°
2026-05-07 00:26 40.82372 -76.44455 2249 ft 97 kts 309°
2026-05-07 00:26 40.82822 -76.45114 2245 ft 96 kts 309°
2026-05-07 00:27 40.83271 -76.45769 2250 ft 96 kts 310°
2026-05-07 00:27 40.83741 -76.46416 2172 ft 105 kts 311°
2026-05-07 00:27 40.84266 -76.47172 1806 ft 115 kts 310°
2026-05-07 00:27 40.84764 -76.47939 1617 ft 104 kts 313°
2026-05-07 00:28 40.85183 -76.48583 1708 ft 82 kts 312°
2026-05-07 00:28 40.85511 -76.49122 1689 ft 84 kts 312°
2026-05-07 00:28 40.85877 -76.49692 1493 ft 77 kts 312°
2026-05-07 00:28 40.86183 -76.50294 1317 ft 82 kts 301°
2026-05-07 00:29 40.86462 -76.50852 1249 ft 71 kts 312°
2026-05-07 00:29 40.86643 -76.51413 1210 ft 63 kts 290°
2026-05-07 00:30 40.87064 -76.51707 1010 ft 37 kts 66°
2026-05-07 00:30 40.87054 -76.51474 951 ft 41 kts 103°